This is the latest recevied weather packets stored in our database for station/object SA7AHC. If no packets are shown the sender has not sent any weather packets the latest 10 day(s).
| Time | Temp. | Humidity | Pressure | Rain* | Wind** | Luminosity | Snow |
|---|---|---|---|---|---|---|---|
| 1777681906 | 5.56° C | 75% | 1022.3 hPa | 0 mm | - | 0 W/m² | - |
| 1777681299 | 5.56° C | 74% | 1022.4 hPa | 0 mm | - | 0 W/m² | - |
| 1777680693 | 6.11° C | 74% | 1022.4 hPa | 0 mm | - | 0 W/m² | - |
| 1777680093 | 6.11° C | 73% | 1022.5 hPa | 0 mm | - | 0 W/m² | - |
| 1777679492 | 6.11° C | 73% | 1022.8 hPa | 0 mm | - | 0 W/m² | - |
| 1777678882 | 6.11° C | 73% | 1022.8 hPa | 0 mm | - | 0 W/m² | - |
| 1777678283 | 6.11° C | 73% | 1023 hPa | 0 mm | - | 0 W/m² | - |
| 1777677669 | 6.11° C | 72% | 1023 hPa | 0 mm | - | 0 W/m² | - |
| 1777677072 | 6.11° C | 72% | 1023 hPa | 0 mm | - | 0 W/m² | - |
| 1777676470 | 6.67° C | 71% | 1023.1 hPa | 0 mm | - | 0 W/m² | - |
| 1777675867 | 6.67° C | 71% | 1023.2 hPa | 0 mm | - | 0 W/m² | - |
| 1777675269 | 6.67° C | 70% | 1023.2 hPa | 0 mm | - | 0 W/m² | - |
| 1777674667 | 7.22° C | 69% | 1023.3 hPa | 0 mm | - | 0 W/m² | - |
| 1777674071 | 7.22° C | 67% | 1023.3 hPa | 0 mm | - | 0 W/m² | - |
| 1777673466 | 7.78° C | 67% | 1023.4 hPa | 0 mm | - | 0 W/m² | - |
| 1777672866 | 7.78° C | 66% | 1023.5 hPa | 0 mm | - | 0 W/m² | - |
| 1777672269 | 8.33° C | 65% | 1023.6 hPa | 0 mm | - | 0 W/m² | - |
| 1777671636 | 8.33° C | 63% | 1023.7 hPa | 0 mm | - | 0 W/m² | - |
| 1777671038 | 9.44° C | 59% | 1023.8 hPa | 0 mm | - | 0 W/m² | - |
| 1777670435 | 10° C | 58% | 1023.7 hPa | 0 mm | - | 0 W/m² | - |
| 1777669837 | 10.56° C | 57% | 1023.7 hPa | 0 mm | - | 0 W/m² | - |
| 1777669235 | 10.56° C | 58% | 1023.8 hPa | 0 mm | - | 0 W/m² | - |
| 1777668634 | 10° C | 59% | 1023.8 hPa | 0 mm | - | 0 W/m² | - |
| 1777668035 | 10.56° C | 58% | 1023.8 hPa | 0 mm | - | 0 W/m² | - |
| 1777667435 | 11.11° C | 57% | 1024 hPa | 0 mm | - | 0 W/m² | - |
* Rain latest hour (hover to see other rain measurements)
** Current wind speed in m/s (hover to see current wind gust speed)